This is the latest recevied weather packets stored in our database for station/object W3BRL. If no packets are shown the sender has not sent any weather packets the latest 1 day(s).
| Time | Temp. | Humidity | Pressure | Rain* | Wind** | Luminosity | Snow |
|---|---|---|---|---|---|---|---|
| 1778060641 | 12.78° C | 96% | 1004.2 hPa | 3.05 mm | - | 0 W/m² | - |
| 1778060338 | 12.78° C | 96% | 1004 hPa | 4.83 mm | - | 0 W/m² | - |
| 1778059127 | 12.78° C | 95% | 1004.8 hPa | 6.1 mm | - | 0 W/m² | - |
| 1778058220 | 12.78° C | 96% | 1004.7 hPa | 4.83 mm | - | 0 W/m² | - |
| 1778057006 | 12.78° C | 95% | 1004.7 hPa | 3.05 mm | - | 0 W/m² | - |
| 1778056703 | 12.78° C | 95% | 1004.5 hPa | 3.05 mm | - | 0 W/m² | - |
| 1778056098 | 13.33° C | 95% | 1004.5 hPa | 3.05 mm | - | 0 W/m² | - |
| 1778055794 | 13.33° C | 95% | 1004.7 hPa | 1.78 mm | - | 0 W/m² | - |
| 1778054582 | 13.33° C | 94% | 1004.4 hPa | 0 mm | - | 0 W/m² | - |
| 1778054280 | 13.33° C | 94% | 1004.4 hPa | 0 mm | - | 0 W/m² | - |
| 1778053674 | 13.33° C | 94% | 1004.5 hPa | 0 mm | - | 0 W/m² | - |
| 1778053069 | 13.33° C | 94% | 1004.3 hPa | 0 mm | - | 0 W/m² | - |
| 1778052766 | 13.33° C | 94% | 1004.7 hPa | 1.27 mm | - | 0 W/m² | - |
| 1778052463 | 13.33° C | 93% | 1004.7 hPa | 1.27 mm | - | 0 W/m² | - |
| 1778052161 | 13.33° C | 93% | 1004.8 hPa | 1.27 mm | - | 0 W/m² | - |
| 1778051556 | 13.33° C | 93% | 1005.1 hPa | 1.78 mm | - | 0 W/m² | - |
| 1778050344 | 13.33° C | 92% | 1005.4 hPa | 1.27 mm | - | 0 W/m² | - |
| 1778050041 | 13.89° C | 91% | 1005.5 hPa | 1.78 mm | - | 0 W/m² | - |
| 1778047619 | 14.44° C | 84% | 1006.1 hPa | 0 mm | - | 0 W/m² | - |
| 1778047315 | 14.44° C | 83% | 1006.1 hPa | 0 mm | - | 0 W/m² | - |
| 1778046709 | 14.44° C | 82% | 1006.1 hPa | 1.27 mm | - | 0 W/m² | - |
| 1778046406 | 14.44° C | 81% | 1006.1 hPa | 1.27 mm | - | 0 W/m² | - |
| 1778046102 | 15° C | 81% | 1006.2 hPa | 0 mm | - | 0 W/m² | - |
| 1778045800 | 15° C | 80% | 1006.3 hPa | 1.78 mm | - | 0 W/m² | - |
| 1778044894 | 15.56° C | 75% | 1006.6 hPa | 1.78 mm | - | 0 W/m² | - |
* Rain latest hour (hover to see other rain measurements)
** Current wind speed in m/s (hover to see current wind gust speed)